Regional Weather Roundup
Issued by NWS

Home | Current Version | Previous Version | Text Only | Print | Product List | Glossary Off
Versions: 1 2 3 4 5 6 7 8 9 10 11 12 13 14 15 16 17 18 19 20 21 22 23 24 25 26 27 28 29 30 31 32 33 34 35 36 37 38 39 40 41 42 43 44 45 46 47 48 49 50

000
ASUS43 KIND 170209
RWRIN

WEATHER ROUNDUP FOR INDIANA
NATIONAL WEATHER SERVICE INDIANAPOLIS IN
1000 PM EDT WED APR 16 2014

NOTE: "FAIR" INDICATES FEW OR NO CLOUDS BELOW 12,000 FEET WITH NO
SIGNIFICANT WEATHER AND/OR OBSTRUCTIONS TO VISIBILITY.

* - STATION DOES NOT REPORT WEATHER SUCH AS PRECIPITATION OR FOG.

+ - STATION NOT QUALITY CONTROLLED BY THE NATIONAL WEATHER SERVICE.
    USE DATA WITH CAUTION...ESPECIALLY DEWPOINT AND RELATIVE
    HUMIDITY OBSERVATIONS.

INZ001>003-010>013-019-020-170300-
NORTHWEST INDIANA

CITY           SKY/WX    TMP DP  RH WIND       PRES   REMARKS
LA PORTE +     PTCLDY    42  23  46 SE12      30.21S
MICHIGAN CITY+ PTCLDY    45  21  39 SE8G16    30.21S
MONTICELLO +   CLEAR     44  26  48 SE8       30.21R
RENSSELAER +   CLEAR     45  27  49 CALM      30.19S
VALPARAISO     PTCLDY    43  23  45 SE12      30.20R

$$

LMZ046-743>745-170300-
SOUTHERN LAKE MICHIGAN

STATION/POSITION TIME  TEMP WIND        PRES
                       AIR  DIR/SP/G
                 (UTC) (F)  (DEG/KT/KT) (MB)
MICHIGAN CITY    0200   46  110/ 11/ 16   N/A

$$

INZ004-005-014>016-021>024-170300-
NORTH CENTRAL INDIANA

CITY           SKY/WX    TMP DP  RH WIND       PRES   REMARKS
GOSHEN         CLEAR     41  25  53 E9        30.25R
LOGANSPORT +   CLEAR     37  28  70 E8        30.24R
PERU/GRISSOM   PTCLDY    41  28  59 SE12      30.23R
ROCHESTER +    CLEAR     45  27  49 SE9       30.25R
SOUTH BEND     NOT AVBL
WARSAW +       CLEAR     39  27  60 SE7       30.25R

$$

INZ006>009-017-018-025>027-170300-
NORTHEAST INDIANA

CITY           SKY/WX    TMP DP  RH WIND       PRES   REMARKS
ANGOLA *+      CLEAR     39  27  60 SE13      30.28S
AUBURN +       CLEAR     41  27  56 E8        30.28F
FORT WAYNE     MOCLDY    40  26  57 E10       30.28S

$$

INZ028-029-035-036-043>045-051>053-170300-
WEST CENTRAL INDIANA

CITY           SKY/WX    TMP DP  RH WIND       PRES   REMARKS
GREENCASTLE +  PTCLDY    41  27  56 SE6       30.22R
LAFAYETTE      CLEAR     42  24  49 SE7       30.21R
TERRE HAUTE    PTCLDY    44  26  49 SE7       30.20R

$$

INZ030>032-037>040-046>048-054>057-064-065-170300-
CENTRAL INDIANA

CITY           SKY/WX    TMP DP  RH WIND       PRES   REMARKS
CP ATTERBURY + MOCLDY    43  27  52 SE6       30.24R
COLUMBUS       CLEAR     45  25  45 SE5       30.24R
GREENWOOD *+   MOCLDY    43  27  52 E6        30.23
INDIANAPOLIS   MOCLDY    43  22  43 SE9       30.23R
-EAGLE CREEK   MOCLDY    44  21  40 SE9       30.22R
KOKOMO *+      PTCLDY    41  27  56 SE10      30.24R
MARION +       PTCLDY    40  25  55 SE8       30.25S
MT COMFORT *+  MOCLDY    41  27  56 E7        30.24S
SHELBYVILLE    MOCLDY    44  25  47 E9        30.24R
ZIONSVILLE +   MOCLDY    44  22  42 SE8       30.23R

$$

INZ033-034-041-042-049-050-058-059-170300-
EAST CENTRAL INDIANA

CITY           SKY/WX    TMP DP  RH WIND       PRES   REMARKS
MUNCIE         PTCLDY    39  26  59 E7        30.25R

$$

INZ060-061-067>069-081>083-085>088-170300-
SOUTHWEST INDIANA

CITY           SKY/WX    TMP DP  RH WIND       PRES   REMARKS
EVANSVILLE     PTCLDY    50  27  40 CALM      30.20R
HUNTINGBURG *+ PTCLDY    45  25  45 SE6       30.22R
WASHINGTON +   MOCLDY    44  32  63 SE5       30.20R

$$

INZ062-063-066-070>080-084-089>092-170300-
SOUTH CENTRAL AND SOUTHEAST INDIANA

CITY           SKY/WX    TMP DP  RH WIND       PRES   REMARKS
BLOOMINGTON    MOCLDY    46  22  38 SE6       30.22R
SEYMOUR +      PTCLDY    37  16  41 SE3       30.24

$$




USA.gov is the U.S. government's official web portal to all federal, state and local government web resources and services.